Wetbulb
54.93 55.22 54.62 54.42 53.97 53.66 54.06 53.99 54.14 54.49 55.12 55.58 56.13 55.96 56.18 56.50 56.60 53.68 50.98 54.58 56.63 61.30 59.72 54.24 53.69 52.07 51.37 49.44 49.67 48.24 42.52 39.28 39.37 40.05 42.20 47.60 46.10 49.33 50.64 48.63 49.91 51.99 52.25 54.34 55.81
55.09 54.77 54.41 54.42 54.16 53.77 53.68 53.99 54.12 54.64 55.09 55.29 55.30 55.53 56.09 56.76 53.47 52.12 58.20 58.79 60.33 60.70 54.77 52.40 50.98 51.29 49.62 47.65 48.06 46.56 42.09 39.88 43.83 44.85 44.44 47.06 47.15 47.81 47.46 47.85 48.63 50.09 52.79 54.47 55.29
54.78 54.88 54.79 54.69 54.45 53.97 53.71 54.04 54.21 54.74 55.14 55.36 55.53 56.53 56.97 56.61 50.66 51.70 60.93 60.72 59.97 58.33 55.14 53.39 51.35 49.91 47.48 48.52 46.69 43.81 42.16 44.38 45.22 46.84 48.46 46.39 46.75 49.49 47.56 46.31 49.07 48.81 51.39 53.57 54.69
55.03 55.24 55.13 54.78 54.73 54.86 54.42 54.18 54.55 54.97 55.28 55.40 55.73 56.90 57.68 53.61 43.92 54.09 62.53 61.71 59.86 58.94 54.98 51.54 50.04 46.77 45.02 44.12 46.02 42.58 45.71 46.33 47.16 47.90 46.73 45.92 47.85 46.91 48.33 48.97 51.91 52.43 53.36 54.00 53.97
55.07 55.05 54.91 54.78 55.17 55.15 54.86 54.94 54.70 54.64 55.06 55.50 56.42 57.51 54.10 50.82 50.69 57.02 63.02 61.43 58.80 56.16 52.54 50.83 48.77 46.33 43.87 44.08 44.25 42.50 43.84 45.71 47.03 46.65 46.57 46.77 44.72 45.15 46.59 50.63 52.59 53.33 53.49 53.00 54.02
55.14 54.72 54.63 54.67 55.02 55.21 55.44 55.01 54.60 54.44 55.00 55.82 57.16 57.32 52.75 47.48 55.42 58.42 58.98 57.51 56.00 54.73 52.94 51.87 49.95 49.21 45.22 45.03 43.24 44.84 44.76 45.30 46.18 46.74 46.21 43.81 45.66 45.61 46.47 49.80 50.11 51.26 52.39 53.27 53.57
55.22 54.73 54.38 54.48 54.85 55.22 55.44 55.39 54.93 54.50 55.11 56.20 57.41 54.51 51.62 51.28 57.23 56.99 58.08 56.44 56.12 55.04 51.93 52.90 52.21 49.22 47.98 45.56 45.53 45.02 41.86 45.21 44.98 44.16 43.96 46.62 43.24 43.03 48.01 49.65 49.41 50.51 50.97 51.55 53.51
55.00 54.77 54.36 54.40 54.69 54.89 55.02 54.89 54.66 54.57 55.42 56.36 57.33 53.88 50.16 55.98 57.40 56.41 57.05 56.21 57.00 56.43 54.57 55.18 53.30 49.16 46.74 46.64 45.74 43.52 41.90 38.83 43.82 45.17 46.58 44.80 40.02 47.18 49.28 47.97 47.79 48.53 49.67 50.83 52.23
55.06 54.62 54.07 54.36 54.59 54.61 54.30 54.16 54.26 54.85 55.68 56.54 54.33 52.66 48.17 58.25 53.54 56.37 57.25 54.36 54.11 54.38 53.86 54.05 50.91 47.05 46.15 43.17 42.04 41.38 37.47 39.36 41.75 45.76 44.76 43.70 41.63 46.23 48.77 49.59 49.02 50.06 50.73 50.57 50.69
55.12 54.32 54.28 54.15 54.16 54.03 54.26 53.85 54.89 54.83 55.48 55.87 54.24 48.74 51.10 49.57 53.55 54.88 55.17 54.87 52.40 51.78 51.30 49.86 48.20 45.44 44.72 42.77 35.15 37.30 38.45 40.33 40.03 44.66 45.60 43.75 43.45 47.24 49.46 49.24 48.77 49.75 50.31 50.37 50.53
55.28 54.18 53.97 54.24 53.83 53.61 52.33 53.45 52.10 51.79 52.70 49.02 49.25 48.65 50.23 53.28 55.47 52.55 54.28 52.36 51.25 49.86 45.24 47.51 44.04 41.18 43.13 44.20 43.64 42.19 40.40 39.47 42.72 46.43 44.01 43.40 43.73 45.78 48.79 49.11 48.66 49.23 49.79 49.33 50.01
55.00 54.30 54.30 54.09 53.70 53.22 51.91 52.65 52.21 52.98 48.91 51.32 51.12 50.80 51.37 52.89 48.88 51.24 55.83 50.01 48.41 44.61 46.13 44.71 41.13 44.79 45.76 44.89 42.58 41.40 39.64 40.08 43.67 45.61 44.79 43.77 43.50 46.77 48.18 48.66 49.34 49.15 49.26 48.94 50.11
54.24 53.93 53.79 53.60 52.87 52.07 52.14 52.49 54.57 54.45 48.72 48.49 50.43 47.49 48.76 49.60 46.81 47.85 52.13 50.46 47.16 44.61 44.69 41.48 43.71 45.84 43.75 41.96 40.68 41.96 39.69 40.54 40.32 44.01 45.66 43.85 41.62 44.72 48.57 49.50 49.14 50.17 50.91 50.94 50.17
53.99 53.44 53.31 52.74 51.05 50.89 49.86 52.83 52.75 54.45 42.75 41.84 45.27 47.79 49.46 49.43 45.02 51.22 53.26 50.98 47.45 43.47 44.59 43.26 45.10 43.05 41.57 40.76 42.17 38.88 44.12 42.79 41.41 40.02 35.22 44.07 32.06 41.38 45.42 45.60 47.24 48.79 49.43 50.17 50.71
53.81 53.36 53.05 51.56 51.65 50.74 50.62 53.05 52.63 53.95 32.15 43.64 45.24 51.30 49.25 45.94 46.39 47.32 52.11 50.13 44.62 44.06 43.89 40.90 41.56 40.91 39.86 42.16 43.59 40.92 44.78 42.64 42.18 39.43 37.61 38.94 35.78 40.63 44.98 43.18 46.54 48.98 49.09 49.92 50.68
53.66 53.05 52.31 51.65 51.23 52.62 53.06 53.73 52.26 40.11 31.48 40.59 45.16 43.87 43.41 44.83 45.39 47.16 46.66 50.08 48.00 43.24 43.29 42.49 46.11 42.97 42.88 44.80 45.04 45.57 43.22 43.59 41.62 38.89 31.66 36.84 35.27 38.20 41.13 43.56 46.84 49.60 51.16 49.89 50.24
52.96 52.26 51.98 52.11 50.31 52.71 52.29 52.57 41.22 35.15 41.61 39.60 40.53 43.27 41.89 41.45 42.14 43.47 41.31 42.32 40.59 36.77 37.18 40.67 41.39 44.01 44.48 42.21 45.14 44.15 41.36 33.77 33.73 32.61 32.46 37.90 34.73 38.12 44.22 46.13 48.85 49.22 51.73 50.47 50.18
50.99 50.35 52.28 53.62 52.72 51.40 50.19 45.49 35.62 37.66 38.96 43.72 42.56 41.62 38.71 41.53 41.47 41.62 40.62 39.50 42.87 40.82 37.90 34.79 34.46 41.13 44.71 42.39 39.93 41.38 40.43 33.30 28.15 30.65 33.86 39.07 32.93 38.23 46.57 48.72 51.23 52.12 53.45 50.42 49.36
49.05 52.20 54.47 53.74 51.30 50.28 49.30 39.03 37.54 39.49 42.22 41.11 41.41 37.28 37.72 40.59 39.84 40.11 39.18 38.68 42.60 42.73 36.53 35.76 35.82 43.84 44.76 45.52 44.43 42.30 39.36 42.61 32.93 35.87 31.85 35.28 37.96 42.70 47.29 48.46 49.00 50.92 52.73 53.06 53.01
47.98 48.91 52.29 52.26 51.19 52.03 45.97 38.30 40.74 43.22 44.12 42.50 36.00 38.52 35.55 38.23 38.10 38.99 37.79 41.75 42.05 44.13 44.35 40.10 33.45 42.00 43.88 45.67 46.32 43.49 44.45 36.45 35.03 30.03 30.06 33.41 34.89 35.33 41.78 44.59 46.52 48.34 51.11 54.05 55.44
49.45 47.99 52.71 51.40 53.19 47.76 40.03 39.59 41.93 45.81 45.16 41.39 38.91 37.67 38.66 37.21 38.31 37.70 37.85 41.44 44.46 43.36 43.77 42.05 38.43 38.48 43.03 40.68 39.73 41.22 38.75 39.58 38.41 35.69 31.10 29.57 33.74 42.32 43.41 45.29 45.83 47.11 50.75 55.78 56.40
47.15 44.66 51.90 52.56 45.49 41.64 41.29 40.81 42.66 44.40 44.85 42.88 42.32 40.97 39.02 38.58 36.89 37.53 37.53 40.40 45.55 43.09 39.77 43.34 40.42 35.83 38.71 44.73 44.82 43.17 40.21 40.17 34.37 34.86 34.91 33.11 33.46 45.61 46.72 48.04 48.07 48.00 50.30 56.82 58.07
44.98 44.75 51.88 52.50 40.10 40.16 41.59 41.29 43.01 42.05 42.03 41.22 40.13 42.07 41.29 39.16 34.94 39.11 40.25 44.50 45.45 43.30 40.93 43.59 39.61 34.19 36.77 41.12 44.43 41.30 42.38 42.10 42.71 40.95 34.79 31.27 33.47 46.07 47.95 47.88 48.82 47.49 49.60 57.25 57.94
45.17 41.75 45.82 45.29 43.13 40.70 38.76 39.07 39.22 43.70 41.96 42.46 40.93 41.89 41.03 38.65 40.13 38.82 39.53 42.89 44.59 43.44 46.27 46.26 41.22 37.72 32.44 35.25 40.58 38.80 41.31 42.25 41.32 36.34 36.20 36.20 37.82 42.66 45.18 45.60 47.33 46.93 48.91 56.06 58.44
43.89 40.28 40.30 39.12 41.35 40.32 39.81 38.95 38.16 38.33 42.44 42.60 40.54 40.10 38.87 35.19 36.85 37.25 40.02 41.01 41.99 44.68 46.35 44.91 38.68 40.13 40.63 42.04 42.09 40.13 39.84 41.26 39.74 39.53 35.62 38.79 39.47 42.28 45.39 44.70 45.96 46.47 48.53 51.76 55.00
42.62 41.32 43.46 41.49 40.41 39.68 39.13 38.27 37.61 39.50 39.36 39.71 38.78 40.49 40.27 36.18 37.88 36.30 39.04 38.59 37.18 42.82 43.69 44.41 38.53 40.60 38.90 41.69 41.23 39.42 41.42 42.14 41.39 40.06 38.97 41.05 40.10 45.73 48.34 47.87 44.75 44.76 46.82 48.76 50.82
43.07 44.14 43.56 39.95 39.46 39.12 39.34 39.37 39.12 41.23 42.41 42.54 41.49 40.17 38.76 40.35 42.53 42.96 42.73 42.01 41.40 39.94 38.81 39.69 40.31 38.51 34.73 40.72 39.33 36.31 40.53 41.68 42.14 42.19 39.86 37.37 41.56 45.94 45.97 46.32 43.60 43.66 45.40 47.99 49.41
MSLP
1017.99 1017.70 1017.52 1017.35 1017.20 1017.04 1016.88 1016.82 1016.63 1016.43 1016.22 1016.02 1015.73 1015.43 1015.06 1014.67 1014.09 1013.68 1013.05 1013.29 1013.02 1012.73 1012.38 1012.06 1011.80 1011.80 1011.70 1011.68 1011.97 1012.23 1011.72 1011.39 1011.09 1010.84 1010.37 1010.34 1010.06 1009.60 1009.28 1008.73 1007.98 1007.07 1006.02 1005.88 1005.50
1018.03 1017.74 1017.50 1017.24 1017.02 1016.90 1016.79 1016.62 1016.54 1016.33 1016.14 1015.97 1015.75 1015.41 1015.06 1014.82 1014.33 1013.19 1012.89 1012.99 1012.98 1012.81 1012.42 1012.17 1011.82 1011.77 1011.61 1011.89 1012.06 1011.88 1011.80 1011.25 1011.06 1010.81 1010.52 1010.50 1010.17 1009.82 1009.25 1008.30 1007.59 1006.95 1005.92 1005.74 1005.51
1018.14 1017.78 1017.46 1017.20 1016.94 1016.71 1016.58 1016.44 1016.35 1016.23 1016.03 1015.84 1015.62 1015.26 1014.91 1014.74 1013.84 1012.97 1012.80 1012.95 1013.04 1013.01 1012.93 1012.71 1012.33 1011.93 1011.63 1011.97 1012.24 1012.33 1011.43 1011.39 1011.06 1010.88 1010.73 1010.46 1009.97 1009.45 1008.86 1007.79 1007.32 1006.67 1005.83 1005.41 1005.44
1018.11 1017.77 1017.43 1017.13 1016.83 1016.56 1016.41 1016.26 1016.16 1016.07 1015.85 1015.62 1015.37 1015.01 1014.58 1014.42 1013.54 1012.74 1012.72 1012.88 1013.01 1013.07 1012.84 1012.52 1012.23 1011.95 1012.03 1012.05 1012.46 1012.29 1011.85 1011.62 1010.98 1010.80 1010.53 1010.08 1009.74 1008.77 1008.03 1007.35 1007.01 1006.56 1005.94 1005.38 1004.97
1018.12 1017.74 1017.42 1017.12 1016.77 1016.47 1016.21 1016.09 1016.02 1015.94 1015.71 1015.40 1015.01 1014.58 1014.45 1013.57 1012.83 1012.62 1012.56 1012.72 1012.88 1012.90 1012.68 1012.47 1012.23 1012.28 1012.20 1012.28 1012.33 1011.96 1011.68 1011.49 1010.98 1010.59 1009.96 1009.78 1008.90 1008.28 1007.00 1006.72 1006.40 1005.74 1005.52 1004.84 1004.51
1018.12 1017.72 1017.36 1017.06 1016.72 1016.38 1016.06 1015.86 1015.77 1015.68 1015.57 1015.26 1014.83 1014.28 1013.72 1012.84 1012.18 1012.25 1012.21 1012.49 1012.54 1012.61 1012.44 1012.40 1012.25 1012.32 1012.27 1012.16 1012.18 1011.83 1011.50 1010.94 1010.37 1009.63 1009.53 1009.08 1007.62 1007.58 1006.26 1006.19 1005.97 1005.64 1005.18 1004.55 1004.06
1018.00 1017.60 1017.23 1016.96 1016.67 1016.34 1016.05 1015.86 1015.75 1015.68 1015.44 1015.12 1014.75 1014.32 1013.48 1012.73 1012.12 1012.18 1012.09 1012.00 1012.21 1012.36 1012.29 1012.30 1012.36 1012.33 1012.24 1011.88 1012.02 1011.69 1010.99 1010.42 1009.47 1009.47 1009.13 1008.46 1006.52 1006.36 1005.92 1005.63 1005.43 1005.19 1004.90 1004.43 1003.86
1017.93 1017.48 1017.10 1016.84 1016.53 1016.20 1015.87 1015.76 1015.76 1015.67 1015.46 1015.08 1014.74 1014.25 1012.78 1012.00 1012.10 1012.09 1011.97 1011.83 1012.02 1012.20 1012.24 1012.14 1012.28 1012.28 1012.30 1012.23 1011.68 1011.22 1011.06 1010.14 1009.38 1009.07 1008.68 1008.32 1004.40 1005.37 1005.46 1005.19 1004.94 1004.77 1004.52 1004.14 1003.44
1017.81 1017.37 1016.94 1016.64 1016.44 1016.18 1015.81 1015.58 1015.63 1015.57 1015.39 1015.06 1014.66 1014.09 1012.38 1011.64 1011.57 1011.41 1011.60 1011.46 1011.48 1011.60 1011.82 1011.92 1012.01 1012.13 1012.21 1011.87 1011.08 1011.11 1010.34 1009.86 1009.02 1008.80 1008.51 1008.07 1004.77 1005.40 1005.38 1004.93 1004.20 1004.19 1003.85 1003.63 1003.06
1017.70 1017.24 1016.81 1016.46 1016.16 1016.06 1015.79 1015.64 1015.51 1015.45 1015.24 1014.97 1014.77 1014.24 1012.16 1012.04 1011.54 1011.34 1011.57 1011.57 1011.33 1011.35 1011.28 1011.58 1011.84 1011.90 1012.04 1011.70 1011.09 1010.76 1010.32 1009.93 1008.83 1007.96 1007.74 1006.37 1004.42 1004.16 1004.45 1004.13 1003.47 1003.22 1003.05 1002.93 1002.45
1017.55 1017.08 1016.76 1016.24 1015.96 1015.84 1015.83 1015.68 1015.75 1015.25 1014.50 1014.74 1014.58 1013.85 1012.72 1012.00 1011.70 1011.22 1011.27 1011.38 1011.42 1011.45 1011.36 1011.70 1011.68 1011.26 1011.41 1011.55 1011.40 1011.03 1010.50 1009.30 1008.25 1007.18 1006.67 1005.02 1004.38 1002.45 1002.86 1002.67 1002.20 1001.78 1001.68 1001.62 1001.77
1017.48 1016.81 1016.47 1016.08 1015.66 1015.67 1015.70 1015.24 1015.18 1015.14 1014.65 1014.25 1014.02 1013.56 1012.75 1012.54 1011.96 1011.41 1011.36 1011.43 1011.50 1011.39 1011.67 1011.69 1011.09 1011.21 1011.52 1011.37 1011.05 1010.56 1009.90 1008.52 1007.51 1006.85 1006.40 1004.00 1002.74 1001.69 1001.47 1001.36 1001.10 1000.66 1000.56 1000.48 1000.40
1017.46 1016.75 1016.21 1015.95 1015.70 1015.67 1015.44 1015.05 1014.78 1014.65 1014.55 1013.79 1013.34 1012.94 1012.55 1012.49 1012.06 1011.80 1011.63 1011.58 1011.57 1011.51 1011.39 1011.53 1011.02 1011.14 1011.21 1010.88 1010.43 1009.70 1009.23 1007.97 1007.24 1006.42 1005.92 1003.90 1001.63 1000.72 999.92 1000.16 999.99 999.66 999.56 999.84 1000.01
1017.29 1016.64 1016.10 1015.88 1016.04 1015.61 1015.12 1014.93 1014.95 1014.79 1014.35 1013.90 1013.02 1012.74 1012.53 1012.19 1012.18 1011.99 1012.03 1012.05 1011.75 1011.80 1011.66 1011.38 1011.30 1011.16 1010.80 1010.53 1010.09 1008.74 1008.46 1008.06 1007.02 1006.60 1005.43 1004.86 1001.67 1000.71 999.90 999.43 999.30 998.85 998.59 998.43 998.64
1017.15 1016.52 1015.93 1015.65 1015.64 1015.35 1015.09 1014.91 1014.83 1014.82 1014.48 1013.83 1013.05 1012.84 1012.89 1013.15 1013.12 1012.15 1012.61 1012.19 1012.16 1012.22 1012.55 1011.45 1011.22 1011.06 1010.60 1009.87 1009.92 1008.86 1008.40 1007.62 1006.99 1006.74 1006.50 1004.77 1004.10 1000.17 999.52 998.85 998.47 998.30 998.00 997.40 997.44
1016.85 1016.33 1016.05 1015.72 1015.50 1014.94 1014.97 1014.68 1014.59 1014.74 1014.28 1013.96 1013.46 1013.27 1013.15 1013.20 1013.06 1012.86 1012.69 1012.70 1012.81 1012.55 1012.44 1011.73 1011.46 1011.33 1010.41 1009.96 1009.61 1009.09 1008.35 1006.88 1006.78 1006.98 1006.40 1004.55 1004.19 1000.06 999.70 999.29 998.62 997.61 996.92 996.46 996.25
1016.71 1016.08 1015.70 1015.57 1015.31 1015.00 1015.03 1014.71 1014.71 1014.50 1015.02 1014.55 1014.06 1014.04 1013.94 1013.67 1013.44 1013.39 1013.39 1013.26 1013.40 1012.94 1012.40 1011.72 1010.90 1010.56 1010.53 1009.78 1008.97 1009.10 1008.32 1007.51 1007.05 1006.66 1004.82 1004.85 1004.48 1001.50 1000.43 999.85 999.14 997.97 996.72 995.69 995.53
1016.60 1015.78 1015.38 1014.96 1014.93 1014.93 1014.84 1014.72 1014.71 1015.34 1015.10 1014.94 1014.80 1014.56 1014.54 1014.38 1014.08 1013.94 1013.87 1013.83 1014.18 1014.28 1013.44 1012.66 1010.84 1010.65 1010.50 1010.40 1009.90 1009.60 1009.93 1009.93 1008.92 1006.89 1004.40 1004.47 1003.99 1002.30 1000.94 1000.07 998.97 997.75 996.50 995.55 995.28
1016.45 1015.54 1014.82 1014.42 1014.46 1014.58 1014.48 1014.88 1015.57 1015.57 1015.52 1015.34 1015.02 1014.99 1015.02 1015.00 1015.09 1014.50 1014.33 1014.43 1014.41 1014.44 1014.36 1013.45 1011.64 1010.71 1010.62 1010.12 1010.11 1009.62 1009.75 1010.17 1009.46 1007.78 1006.54 1004.52 1004.12 1002.85 1001.21 999.99 998.95 997.48 996.20 995.49 995.36
1017.52 1016.44 1015.02 1014.44 1014.22 1014.06 1014.64 1015.78 1015.96 1015.87 1015.64 1015.58 1015.58 1015.71 1015.51 1015.31 1015.16 1014.84 1014.46 1014.46 1014.42 1014.56 1014.73 1014.32 1013.05 1010.94 1010.18 1009.76 1009.79 1010.00 1010.33 1010.23 1010.13 1008.45 1006.05 1004.59 1004.34 1003.72 1002.06 1000.74 999.80 998.51 996.98 995.61 994.81
1017.68 1016.42 1014.92 1014.61 1014.24 1014.71 1015.84 1016.46 1016.28 1015.95 1015.85 1015.84 1015.84 1015.84 1015.76 1015.88 1015.64 1015.17 1014.76 1014.47 1014.57 1014.46 1014.76 1014.43 1014.01 1011.42 1010.08 1009.44 1009.31 1009.51 1010.35 1010.46 1010.37 1009.20 1007.86 1005.93 1005.04 1004.44 1003.44 1002.30 1000.84 999.52 997.90 995.86 994.93
1019.07 1017.22 1015.35 1014.54 1015.54 1017.01 1017.03 1017.36 1017.16 1016.52 1016.32 1016.26 1016.17 1016.10 1016.30 1016.31 1015.86 1015.50 1014.74 1014.44 1014.52 1014.68 1014.38 1014.29 1013.77 1011.92 1010.14 1009.54 1009.69 1009.71 1010.03 1010.27 1009.60 1008.41 1008.00 1007.24 1005.46 1004.33 1003.56 1002.60 1001.52 999.96 998.22 995.71 994.47
1019.90 1018.55 1016.22 1015.71 1017.20 1017.94 1017.96 1017.66 1017.52 1017.25 1017.01 1016.86 1016.64 1016.51 1016.84 1016.67 1016.44 1015.48 1014.88 1014.36 1014.35 1014.44 1014.26 1014.23 1013.57 1012.00 1009.59 1009.48 1008.84 1009.02 1009.20 1009.80 1009.27 1008.81 1008.00 1007.18 1006.04 1004.62 1003.52 1002.51 1001.43 1000.42 998.76 995.98 994.92
1020.62 1019.58 1018.46 1018.28 1019.47 1019.23 1019.05 1018.64 1018.10 1017.79 1017.56 1017.56 1017.21 1017.05 1017.02 1016.73 1016.46 1015.48 1014.97 1014.51 1014.40 1014.11 1014.08 1014.26 1013.61 1012.89 1011.85 1010.64 1009.60 1009.05 1008.94 1009.24 1008.92 1008.71 1008.07 1007.43 1006.12 1004.60 1004.16 1003.64 1002.03 1001.42 999.84 997.47 995.90
1021.50 1021.55 1021.63 1020.32 1019.79 1020.01 1019.79 1019.48 1019.03 1018.62 1018.16 1017.85 1017.35 1017.44 1017.87 1017.28 1016.24 1015.51 1015.16 1014.83 1014.42 1013.90 1013.78 1014.03 1013.24 1012.50 1011.34 1010.33 1009.62 1009.19 1009.04 1008.73 1008.48 1008.78 1008.40 1007.31 1006.37 1005.53 1004.84 1004.80 1003.88 1002.74 1000.96 999.28 997.91
1022.64 1022.59 1021.90 1021.40 1021.12 1020.40 1020.17 1020.06 1019.70 1019.45 1019.11 1018.09 1017.91 1017.68 1017.66 1017.42 1016.65 1015.71 1015.50 1015.62 1015.00 1014.18 1014.06 1014.05 1013.07 1012.31 1010.66 1009.64 1009.23 1009.06 1008.70 1008.52 1008.15 1008.45 1008.29 1007.45 1006.53 1005.92 1005.04 1004.59 1004.29 1003.68 1002.41 1001.18 1000.08
1023.10 1023.35 1022.72 1021.72 1021.23 1020.80 1020.67 1020.61 1020.10 1020.03 1019.00 1018.61 1018.24 1017.74 1016.98 1016.51 1016.27 1015.72 1015.55 1015.18 1014.98 1014.69 1014.50 1014.30 1013.34 1012.28 1010.35 1009.43 1008.86 1008.81 1008.53 1008.41 1008.16 1008.33 1008.53 1007.54 1007.30 1006.06 1005.33 1004.98 1005.26 1004.62 1003.75 1003.03 1002.14
Wind_Speed
14 13 11 10 8 8 8 8 8 9 9 11 12 13 14 15 12 1 8 3 3 9 9 2 4 3 2 4 3 1 2 3 3 4 1 7 8 9 6 13 14 11 17 16 22
15 13 12 10 9 8 7 7 7 8 9 10 10 11 12 12 3 5 2 2 5 9 6 10 8 3 3 3 2 2 3 6 4 4 7 11 12 11 8 14 17 18 20 17 14
15 13 12 10 8 7 7 8 7 8 9 10 10 11 11 5 1 5 4 3 3 5 3 2 3 3 2 1 2 2 4 3 7 11 11 8 14 13 13 18 16 16 20 20 18
16 14 13 11 10 9 9 8 8 8 10 10 10 11 9 2 6 3 7 5 2 2 2 2 4 3 3 3 2 5 7 10 11 11 9 14 13 19 20 20 20 20 20 22 21
17 15 13 12 11 10 10 9 8 8 9 10 12 12 3 3 4 3 8 5 2 2 4 4 4 1 7 3 4 6 4 5 11 17 20 18 21 24 25 22 22 22 20 21 18
17 16 14 12 11 11 10 9 8 8 8 9 12 11 1 6 1 0 6 3 1 2 4 3 4 3 3 5 3 3 11 17 14 19 11 11 19 11 10 13 19 23 20 21 20
18 17 15 12 11 11 10 9 7 7 7 8 10 3 1 4 0 1 3 2 3 3 4 3 3 4 3 7 1 8 14 14 11 2 6 9 19 14 14 13 15 17 14 15 17
18 16 15 13 11 10 10 9 6 6 6 6 8 2 2 2 3 6 4 5 6 5 5 9 6 4 4 3 5 9 4 7 2 10 9 4 26 12 11 8 10 13 14 16 18
18 16 15 12 11 11 9 5 3 4 4 6 2 4 5 5 8 4 3 4 2 2 4 4 2 2 2 7 8 2 11 20 16 4 9 7 25 2 7 17 24 21 23 17 19
19 16 14 12 9 7 7 2 3 1 2 2 2 2 7 11 10 4 0 2 3 3 2 1 0 4 2 7 9 17 20 19 20 8 18 27 33 27 22 21 23 21 20 19 18
20 17 13 11 8 3 1 2 1 1 3 4 2 1 8 13 1 9 1 1 1 1 5 1 6 11 12 9 13 14 16 21 25 24 22 25 23 30 23 23 24 24 20 19 19
21 17 14 11 6 5 2 3 2 2 4 1 2 5 4 4 4 9 5 4 2 9 3 5 11 6 9 8 13 15 18 21 17 12 18 26 28 30 27 25 25 26 23 22 20
23 18 13 9 5 2 2 2 4 1 2 3 2 3 6 5 3 11 8 3 4 5 10 10 12 9 7 15 12 12 12 15 23 24 20 26 24 18 23 18 16 20 23 22 22
24 20 13 8 1 2 1 1 6 2 1 6 4 3 7 11 3 12 6 3 2 6 8 6 2 7 10 11 6 13 5 18 24 20 12 15 16 21 15 13 11 16 19 20 22
24 20 12 2 0 1 3 7 1 3 1 10 3 2 8 10 9 8 4 1 5 8 3 6 12 9 9 5 3 10 17 22 24 20 15 11 8 9 13 12 19 16 18 20 21
28 19 8 1 1 1 6 2 1 1 1 5 4 9 10 5 9 7 6 4 2 4 3 14 8 5 4 8 13 18 16 22 3 1 5 6 5 11 6 11 22 25 18 19 19
30 20 2 1 5 6 1 2 1 3 2 6 7 8 8 12 7 10 6 8 9 9 17 13 4 3 2 15 7 11 13 6 3 3 7 4 5 13 16 15 23 22 19 14 16
31 14 3 2 6 1 2 1 2 2 3 3 6 6 5 12 6 12 9 7 3 3 9 8 5 3 3 8 10 15 5 2 8 10 18 14 6 6 12 16 21 18 14 6 14
21 4 1 7 4 3 2 4 2 1 3 5 8 3 4 8 5 8 5 4 3 3 9 7 7 6 13 14 5 5 11 12 7 7 7 3 5 11 11 22 25 23 19 11 6
6 4 3 14 3 2 4 2 1 2 4 1 2 1 6 10 10 12 4 2 4 1 1 2 9 6 13 6 4 7 11 4 2 8 9 4 5 5 21 27 26 23 21 17 11
3 4 4 13 2 6 4 0 3 2 4 2 2 5 5 5 12 5 4 5 1 5 3 3 4 10 12 4 13 5 5 4 4 4 6 6 5 5 16 18 19 20 20 16 11
4 4 6 7 5 2 2 3 4 5 4 3 3 3 3 7 7 7 5 3 3 1 11 2 4 8 16 13 1 4 6 9 4 7 4 4 5 8 15 15 18 20 21 19 11
6 4 4 4 4 3 3 2 2 7 5 4 4 2 5 7 6 7 6 2 7 10 5 1 2 9 8 5 9 18 12 10 13 5 4 6 7 11 23 24 21 21 21 17 8
4 4 4 5 3 2 3 3 5 7 4 6 4 2 12 10 4 8 12 6 14 16 13 4 4 7 7 14 18 13 18 13 11 3 11 5 19 22 22 22 24 21 21 19 14
5 3 2 4 4 4 1 2 5 7 4 5 1 4 10 6 14 5 2 13 12 6 3 3 8 13 16 18 18 14 10 14 13 7 5 18 18 17 18 16 19 16 20 21 20
4 4 3 2 4 4 2 3 3 5 3 2 6 13 11 8 9 19 12 14 9 4 3 2 7 11 18 10 9 2 11 16 9 5 10 18 17 17 15 11 16 17 17 18 17
2 1 2 2 4 3 2 6 4 9 4 9 12 13 12 10 10 19 20 19 17 12 9 6 4 7 7 14 12 6 10 15 11 3 12 13 17 16 18 13 16 17 18 15 15
Wind_Direction
9 5 1 354 343 340 335 335 337 335 337 339 340 341 337 338 329 306 48 57 325 324 328 303 48 91 104 87 71 137 185 208 239 233 173 299 314 303 284 275 278 269 283 292 307
8 8 4 356 348 338 328 326 334 335 339 344 342 334 332 339 329 57 80 75 16 4 17 15 15 16 81 78 97 154 214 220 209 219 265 283 280 285 280 279 277 278 280 292 301
4 2 3 0 348 332 325 321 328 336 337 343 337 326 320 321 263 50 140 102 32 25 27 350 336 358 72 38 71 147 255 243 249 257 286 262 273 272 267 266 264 272 289 294 300
359 358 356 358 350 338 324 320 325 335 339 337 331 322 322 197 64 55 139 135 121 360 323 10 10 40 26 22 25 271 260 265 287 286 277 267 281 269 256 257 271 268 277 284 287
357 355 354 351 345 337 327 320 322 332 336 332 329 326 200 62 73 75 137 124 120 327 8 0 15 45 354 302 288 249 252 256 271 279 274 279 264 262 269 261 253 258 262 266 271
353 352 352 348 342 337 327 321 320 327 334 335 334 325 264 67 190 256 152 154 238 333 337 326 339 329 271 290 274 290 281 287 278 272 270 259 268 254 260 269 259 262 255 265 268
352 348 347 347 341 333 330 324 316 320 327 337 343 349 41 38 273 313 200 225 184 192 293 294 298 271 320 292 294 280 293 308 281 298 254 302 266 242 259 278 275 266 266 271 274
351 344 344 345 340 330 325 320 312 311 318 331 337 316 291 158 213 258 200 251 222 226 243 277 258 259 249 309 268 295 286 323 6 286 309 278 278 295 269 262 261 262 272 286 275
350 344 338 343 343 332 324 305 292 279 291 318 346 345 34 318 327 6 209 266 201 185 198 221 185 296 260 317 306 17 308 313 314 295 289 255 290 288 266 284 275 266 273 266 273
351 346 335 336 345 345 355 109 148 221 242 230 201 271 345 340 337 327 64 255 288 326 337 153 154 260 237 323 319 307 304 301 293 286 285 283 279 284 280 271 268 265 259 258 254
350 349 337 330 335 335 244 221 289 126 31 56 338 95 296 326 338 10 349 249 66 22 308 8 283 300 313 311 290 294 291 291 291 295 290 274 281 284 282 271 263 258 250 241 244
348 348 344 336 333 138 188 52 83 22 307 197 256 274 278 300 302 357 333 294 335 305 285 279 293 347 314 296 295 287 287 286 290 292 299 289 285 288 284 275 268 263 254 244 233
348 345 344 348 115 164 360 77 23 174 295 310 267 296 339 330 314 341 348 338 293 299 318 291 292 320 326 307 298 289 272 285 294 307 287 286 283 288 300 303 279 266 255 251 242
348 343 341 329 212 336 356 50 357 236 355 350 356 41 345 339 350 333 5 297 305 311 322 307 295 310 315 293 264 305 311 299 296 308 306 333 297 300 308 318 302 271 262 254 236
348 345 344 324 38 284 359 318 194 205 285 332 318 11 345 24 309 343 13 315 294 307 310 304 300 309 296 261 259 279 311 291 292 290 301 295 259 272 311 328 337 313 271 263 238
340 343 338 156 171 298 335 133 182 220 349 339 325 343 350 343 342 317 351 18 294 301 258 289 294 265 266 297 288 295 301 302 15 291 254 234 237 292 303 329 330 315 301 267 233
334 333 271 288 329 331 284 147 282 62 354 340 330 342 343 337 331 349 341 17 27 350 349 318 298 270 273 315 322 318 354 310 306 245 296 133 239 275 306 318 319 317 312 278 232
330 321 194 234 326 180 155 102 42 4 315 324 331 326 340 357 339 340 346 13 72 3 315 342 329 341 35 336 304 323 339 303 308 311 304 312 242 264 326 316 329 326 328 321 243
322 327 342 343 344 178 102 57 67 283 298 318 321 352 341 344 326 338 340 317 346 11 1 323 276 296 309 312 279 16 326 325 267 250 275 270 276 283 308 334 344 337 335 340 303
334 321 318 337 344 83 72 104 277 265 318 331 305 326 322 343 338 339 317 340 331 327 286 302 289 321 329 312 151 301 318 290 256 306 308 328 299 298 331 331 333 338 328 322 320
356 340 342 340 341 51 83 294 295 345 351 297 271 291 270 331 327 311 283 304 265 338 271 281 234 306 309 334 333 355 321 301 258 255 284 315 322 280 320 326 330 328 322 314 298
343 310 355 338 51 27 67 329 323 343 360 350 301 267 326 337 314 291 252 286 214 322 315 239 289 292 308 319 108 339 317 310 285 317 292 259 280 348 336 341 344 335 329 315 290
338 295 337 346 65 34 338 13 349 359 333 20 297 6 24 330 309 255 265 255 316 337 296 171 246 307 335 186 310 332 325 311 323 301 290 320 307 310 347 352 353 346 339 344 339
333 334 5 47 27 28 5 24 353 342 315 346 282 96 355 315 261 283 287 303 331 308 275 212 257 259 282 281 299 307 315 326 336 297 313 337 324 346 346 350 345 345 342 359 18
6 49 16 350 25 1 291 14 357 10 332 316 229 27 345 289 304 248 271 314 317 327 121 235 277 293 282 285 293 304 334 335 325 3 329 330 331 333 334 348 336 337 350 6 14
4 350 1 333 310 311 349 23 6 337 284 302 305 319 311 260 259 291 302 306 285 312 320 235 280 307 305 298 325 221 343 345 351 349 335 335 334 335 337 329 357 357 352 7 2
105 138 283 28 349 316 32 11 324 341 260 261 307 315 304 299 279 281 279 270 254 270 299 282 275 319 288 318 311 211 346 337 322 43 343 343 321 325 350 334 8 356 359 6 3